Regional Weather Roundup
Issued by NWS Midland/Odessa, TX

Skip options and go directly to product.
Home | Oldest Version | Previous Version | Current Version | All | Text Only | Save Text | Print | Product List | Glossary On

Skip product version selection by date and time.   
765
ASUS44 KMAF 020810
RWRMAF
MIDLAND AREA WEATHER ROUNDUP
NATIONAL WEATHER SERVICE MIDLAND TX
300 AM CDT THU OCT 02 2014

...IN SOUTHWEST TEXAS AND SOUTHEAST NEW MEXICO...

CITY           SKY/WX    TMP DP  RH WIND       PRES   REMARKS
ALPINE         CLEAR     63  45  52 SW8       30.01S
ANDREWS        FAIR      68  63  83 SW8       29.86S
ARTESIA        NOT AVBL
BIG SPRING     CLEAR     76  63  64 S12       29.84S
CARLSBAD       CLEAR     63  44  50 W10       29.85S
DRYDEN           N/A     72  66  81 N5        29.82R
FORT STOCKTON  CLEAR     69  57  65 S10       29.85S
GUAD PASS      CLEAR     60  36  40 SW17      30.01S
HOBBS          CLEAR     61  45  55 W9        29.88S
MARFA          PTCLDY    55  45  67 N5        30.01R
MIDLAND AIRPK  CLEAR     73  63  69 W6        29.85R
MIDLAND INTL   CLEAR     72  63  73 SW8       29.84R
ODESSA         CLEAR     73  62  68 S10       29.86R
PECOS          CLEAR     62  53  72 W9        29.84S
PRESIDIO       FAIR      73  50  43 N9        29.85S
SEMINOLE       CLEAR     61  47  59 W7        29.87S
SNYDER         CLEAR     74  64  71 S12       29.81S
WINK           CLEAR     64  55  72 CALM      29.83R
$$
...OTHER STATIONS IN TEXAS...

CITY           SKY/WX    TMP DP  RH WIND       PRES   REMARKS
ABILENE        CLEAR     77  64  64 S12       29.80R
AMARILLO       CLEAR     64  41  42 NW12      29.82R
AUSTIN         CLOUDY    80  74  81 S10       29.81F
BROWNSVILLE    CLEAR     82  82 100 S12       29.82S
CORPUS CHRISTI PTCLDY    81  78  91 S12       29.82S
DALLAS FTW     PTCLDY    80  70  71 S14G24    29.76S
DEL RIO        CLEAR     77  69  76 SE8       29.79F
EL PASO        CLEAR     69  36  29 W3        29.94R
HOUSTON INT    MOCLDY    80  77  90 S5        29.85S
LUBBOCK        CLEAR     59  49  69 S13       29.82S
SAN ANGELO     CLEAR     77  65  66 S17       29.80F
SAN ANTONIO    MOCLDY    80  75  84 S10       29.84S
WACO           MOCLDY    78  72  81 S15       29.80S
WICHITA FALLS  NOT AVBL
$$
...OTHER LOCATIONS IN NEW MEXICO...

CITY           SKY/WX    TMP DP  RH WIND       PRES   REMARKS
ALAMAGORDO     CLEAR     59  39  47 CALM      29.96R
ALBUQUERQUE    PTCLDY    60  36  40 N12       30.04R
CANNON AFB     CLEAR     60  42  52 W7        29.87R
CLOVIS           N/A     52  43  71 NW14      29.89R
HOLLOMAN AFB   CLEAR     65  33  30 W7        29.93R
ROSWELL        CLEAR     56  44  64 CALM      29.86R
RUIDOSO        CLEAR     52  32  46 N5        30.08R
SANTA FE       PTCLDY    50  35  56 N13       30.05R
TRUTH OR CONSE CLEAR     63  33  32 NW3       30.00R
TUCUMCARI      PTCLDY    65  35  33 N12       29.86R
$$

USA.gov is the U.S. government's official web portal to all federal, state and local government web resources and services.